Location: Caltech
(34.1382°N, 118.1253°W)
Time: 20:38:13
(UTC-07:00)

Uribyol 2 - Visible Passes

Search period start: 31 August 2016 00:00
Search period end: 10 September 2016 00:00
Orbit: 782 x 797 km, 98.8° (Epoch: 31 August)

Date Brightness Start Highest point End Pass type
(mag) Time Alt. Az. Time Alt. Az. Time Alt. Az.
31 Aug ? 03:02:41 10° NE 03:05:48 25° ENE 03:05:48 25° ENE visible
31 Aug ? 04:42:02 10° N 04:46:27 29° WNW 04:46:30 29° WNW visible
01 Sep ? 02:34:40 10° ENE 02:35:43 12° ENE 02:35:43 12° ENE visible
01 Sep ? 04:11:55 10° N 04:16:26 54° NW 04:16:26 54° NW visible
02 Sep ? 03:42:14 10° NNE 03:46:21 55° NE 03:46:21 55° NE visible
02 Sep ? 05:24:20 10° NW 05:26:13 12° WNW 05:27:04 12° WNW visible
03 Sep ? 03:12:59 10° NNE 03:16:17 30° ENE 03:16:17 30° ENE visible
03 Sep ? 04:52:55 10° NNW 04:56:57 23° WNW 04:56:59 23° WNW visible
04 Sep ? 02:44:28 10° NE 02:46:11 15° ENE 02:46:11 15° ENE visible
04 Sep ? 04:22:37 10° N 04:26:54 43° NW 04:26:54 43° NW visible
05 Sep ? 03:52:47 10° NNE 03:56:49 55° NNE 03:56:49 55° NNE visible
06 Sep ? 03:23:23 10° NNE 03:26:44 35° NE 03:26:44 35° NE visible
06 Sep ? 05:03:54 10° NNW 05:07:25 19° WNW 05:07:26 19° WNW visible
07 Sep ? 02:54:32 10° NE 02:56:39 19° ENE 02:56:39 19° ENE visible
07 Sep ? 04:33:21 10° N 04:37:22 34° NW 04:37:22 34° NW visible
08 Sep ? 04:03:23 10° N 04:07:17 50° N 04:07:17 50° N visible
09 Sep ? 03:33:49 10° NNE 03:37:11 38° NE 03:37:11 38° NE visible
09 Sep ? 05:15:02 10° NNW 05:17:52 15° WNW 05:17:54 15° WNW visible
